This demonstration page uses our WeatherBlox Daily Observations layout. Learn more.

Left ArrowRight Arrow

40.92945, -100.16068

Hourly Observations for June 14, 2016

Temp ( °F °C ) Dew Point ( °F °C ) Humidity (%) Winds ( mph kmh ) Pressure ( in mb ) Visibility ( mi km ) Precip ( " mm )
12:15 am 00:15 Mostly Cloudy 73 23 65 18.6 76 76 ESE 9 15 29.71 1006 10 16 N/A
12:35 am 00:35 Mostly Cloudy 74 23.2 65 18.5 75 75 ESE 7 11 29.71 1006 10 16 N/A
12:55 am 00:55 Mostly Cloudy 74 23.1 65 18.5 75 75 SSE 3 6 29.71 1006 10 16 N/A
1:15 am 01:15 Cloudy 73 23 66 18.7 77 77 SE 5 7 29.71 1006 10 16 N/A
1:35 am 01:35 Mostly Cloudy 73 22.7 65 18.3 76 76 ESE 6 9 29.71 1006 10 16 N/A
1:55 am 01:55 Partly Cloudy 73 22.6 65 18.1 76 76 SE 3 6 29.71 1006 10 16 N/A
2:15 am 02:15 Mostly Cloudy 71 21.7 65 18.3 81 81 N N/A 29.68 1005 10 16 N/A
2:35 am 02:35 Mostly Cloudy 73 22.6 64 17.7 74 74 WNW 30 48 29.71 1006 10 16 N/A
2:55 am 02:55 Partly Cloudy 66 19 61 16.1 83 83 NW 26 43 29.74 1007 10 16 N/A
3:15 am 03:15 Mostly Cloudy 66 18.7 60 15.3 81 81 NNW 22 35 29.77 1008 10 16 N/A
3:35 am 03:35 Cloudy 65 18.1 60 15.4 84 84 N 17 28 29.74 1007 10 16 N/A
3:55 am 03:55 Cloudy 64 18 60 15.5 85 85 N 18 30 29.77 1008 10 16 N/A
4:15 am 04:15 Mostly Cloudy 64 17.9 59 15.2 84 84 N 13 20 29.77 1008 10 16 N/A
4:35 am 04:35 Partly Cloudy 64 17.5 59 15 85 85 N 10 17 29.77 1008 10 16 N/A
4:55 am 04:55 Clear 63 17.3 59 15 86 86 N N/A 29.74 1007 10 16 N/A
5:15 am 05:15 Clear 63 17.1 58 14.5 85 85 ENE 6 9 29.74 1007 10 16 N/A
5:35 am 05:35 Partly Cloudy 63 17.1 58 14.5 85 85 E 5 7 29.74 1007 10 16 N/A
5:55 am 05:55 Partly Cloudy 62 16.7 58 14.3 86 86 ESE 3 6 29.74 1007 10 16 N/A
6:15 am 06:15 Sunny 62 16.5 58 14.4 87 87 ESE 7 11 29.71 1006 10 16 N/A
6:35 am 06:35 Sunny 62 16.4 58 14.5 89 89 N N/A 29.71 1006 10 16 N/A
6:55 am 06:55 Sunny 62 16.5 59 14.8 90 90 SSE 5 7 29.71 1006 10 16 N/A
7:15 am 07:15 Sunny 64 17.6 59 15 85 85 SE 3 6 29.68 1005 10 16 N/A
7:35 am 07:35 Sunny 64 17.7 59 15 84 84 S 5 7 29.68 1005 10 16 N/A
7:55 am 07:55 Sunny 65 18.2 59 14.9 81 81 SSW 3 6 29.68 1005 10 16 N/A
8:15 am 08:15 Sunny 65 18.5 59 15.1 81 81 W 7 11 29.71 1006 10 16 N/A
8:35 am 08:35 Sunny 66 18.9 60 15.4 80 80 SW 6 9 29.74 1007 10 16 N/A
8:55 am 08:55 Sunny 67 19.4 59 15 76 76 SW 6 9 29.74 1007 10 16 N/A
9:15 am 09:15 Sunny 69 20.6 60 15.4 72 72 SW 8 13 29.74 1007 10 16 N/A
9:35 am 09:35 Sunny 71 21.5 60 15.5 69 69 SSW 10 17 29.71 1006 10 16 N/A
9:55 am 09:55 Sunny 72 22.3 60 15.8 67 67 WSW 8 13 29.71 1006 10 16 N/A
10:15 am 10:15 Sunny 73 22.6 61 16.3 68 68 WSW 10 17 29.68 1005 10 16 N/A
10:35 am 10:35 Sunny 73 23 62 16.8 68 68 WSW 8 13 29.68 1005 10 16 N/A
10:55 am 10:55 Sunny 74 23.6 61 16 63 63 WSW 10 17 29.68 1005 10 16 N/A
11:15 am 11:15 Sunny 76 24.4 61 16.3 61 61 WSW 10 17 29.68 1005 10 16 N/A
11:35 am 11:35 Sunny 77 25 61 16.2 58 58 WSW 8 13 29.65 1004 10 16 N/A
11:55 am 11:55 Sunny 78 25.7 59 15.2 52 52 WSW 10 17 29.65 1004 10 16 N/A
12:15 pm 12:15 Sunny 79 26.1 58 14.7 50 50 WSW 12 19 29.65 1004 10 16 N/A
12:35 pm 12:35 Sunny 80 26.4 59 15 50 50 WSW 10 17 29.65 1004 10 16 N/A
12:55 pm 12:55 Sunny 80 26.5 59 14.9 49 49 WSW 10 17 29.62 1003 10 16 N/A
1:15 pm 13:15 Sunny 80 26.9 59 14.9 48 48 SW 14 22 29.62 1003 10 16 N/A
1:35 pm 13:35 Sunny 82 27.6 60 15.5 48 48 SW 12 19 29.62 1003 10 16 N/A
1:55 pm 13:55 Sunny 82 27.7 60 15.3 47 47 WSW 8 13 29.62 1003 10 16 N/A
2:15 pm 14:15 Sunny 82 27.9 59 15.2 46 46 SW 9 15 29.62 1003 10 16 N/A
2:35 pm 14:35 Sunny 83 28.4 57 13.9 41 41 WSW 6 9 29.59 1002 10 16 N/A
2:55 pm 14:55 Sunny 84 28.9 56 13.2 38 38 WSW 10 17 29.59 1002 10 16 N/A
3:15 pm 15:15 Sunny 85 29.2 55 12.7 36 36 WSW 10 17 29.59 1002 10 16 N/A
3:35 pm 15:35 Sunny 85 29.6 55 12.9 36 36 WSW 12 19 29.59 1002 10 16 N/A
3:55 pm 15:55 Sunny 87 30.5 54 12.4 33 33 WSW 13 20 29.56 1001 10 16 N/A
4:15 pm 16:15 Partly Cloudy 87 30.5 51 10.7 29 29 WSW 9 15 29.56 1001 10 16 N/A
4:35 pm 16:35 Partly Cloudy 87 30.5 51 10.6 29 29 W 10 17 29.56 1001 10 16 N/A
4:55 pm 16:55 Sunny 87 30.6 48 8.7 26 26 WSW 13 20 29.56 1001 10 16 N/A
5:15 pm 17:15 Sunny 87 30.7 50 9.8 27 27 W 13 20 29.56 1001 10 16 N/A
5:35 pm 17:35 Sunny 87 30.8 50 9.8 27 27 WSW 13 20 29.56 1001 10 16 N/A
5:55 pm 17:55 Sunny 87 30.7 48 8.8 26 26 W 13 20 29.56 1001 10 16 N/A
6:15 pm 18:15 Sunny 87 30.6 49 9.4 27 27 W 13 20 29.56 1001 10 16 N/A
6:35 pm 18:35 Sunny 87 30.5 51 10.4 29 29 W 12 19 29.56 1001 10 16 N/A
6:55 pm 18:55 Sunny 86 30.2 50 10.1 29 29 W 8 13 29.56 1001 10 16 N/A
7:15 pm 19:15 Sunny 86 30 52 10.9 31 31 WSW 8 13 29.56 1001 10 16 N/A
7:35 pm 19:35 Sunny 85 29.5 53 11.5 33 33 WSW 5 7 29.56 1001 10 16 N/A
7:55 pm 19:55 Sunny 84 28.7 54 12.4 37 37 WSW 5 7 29.56 1001 10 16 N/A
8:15 pm 20:15 Sunny 82 27.8 57 13.9 42 42 SW 5 7 29.56 1001 10 16 N/A
8:35 pm 20:35 Sunny 80 26.9 59 14.9 48 48 SSW 3 6 29.59 1002 10 16 N/A
8:55 pm 20:55 Sunny 78 25.4 59 15 53 53 SSW 6 9 29.62 1003 10 16 N/A
9:15 pm 21:15 Clear 75 24.1 59 14.9 57 57 SSW 6 9 29.65 1004 10 16 N/A
9:35 pm 21:35 Clear 73 23 58 14.7 60 60 SSW 6 9 29.65 1004 10 16 N/A
9:55 pm 21:55 Clear 72 22.2 59 14.9 63 63 SSW 6 9 29.65 1004 10 16 N/A
10:15 pm 22:15 Clear 72 22 56 13.6 59 59 SW 6 9 29.65 1004 10 16 N/A
10:35 pm 22:35 Clear 71 21.6 56 13.5 60 60 SW 5 7 29.65 1004 10 16 N/A
10:55 pm 22:55 Clear 70 21.2 56 13.1 60 60 SW 7 11 29.65 1004 10 16 N/A
11:15 pm 23:15 Clear 69 20.8 56 13.2 62 62 SW 6 9 29.71 1006 10 16 N/A
11:35 pm 23:35 Clear 69 20.6 55 13 62 62 SW 5 7 29.71 1006 10 16 N/A
11:55 pm 23:55 Clear 68 19.9 56 13.2 65 65 SW 3 6 29.71 1006 10 16 N/A

Powered by AerisWeather